Location: Geçitköy
(36.7327°N, 29.8010°E)
Time: 18:50:24
(UTC+00:00)

NOAA 15 - Pass Details

Date: 12 January 2026
Orbit: 794 x 809 km, 98.5° (Epoch: 11 February)

Event Time Altitude Azimuth Distance (km) Brightness Sun altitude
Rises 16:20:54 0° 161° (SSE) 3,292 7.8 -14.9°
Reaches altitude 10° 16:23:14 10° 160° (SSE) 2,364 7.0 -15.4°
Maximum altitude 16:28:27 76° 75° (ENE) 822 4.5 -16.4°
Drops below altitude 10° 16:33:40 10° 350° (N) 2,371 7.0 -17.4°
Sets 16:36:00 0° 349° (N) 3,303 7.8 -17.9°
